STARLINK-34139, 63975

Orbit data source: Space-Track

STARLINK-34139, 63975 is a payload satellite owned by SpaceX/Seattle (US) in LEO that was launched on Tue, 13 May 2025 UTC via an FALCON 9 launch vehicle from the Air Force Eastern Test Range (AFETR). Payload-class satellites include a variety of spacecraft equipped with specific instruments for various scientific and technological missions. These include communications satellites like Starlink; space stations such as the ISS; scientific satellites like the Hubble; Earth observation satellites from companies like Planet Labs, Umbra, and HawkEye 360; GPS; miniature CubeSats for education and research; and military/defense satellites.

Loading next visibility...
Identifier
63975, 2025-099Z
Orbit
LEO
Country
Flag of USUS
Related business
Manufacturer
SpaceX/Seattle
Mission
Operational Commercial Communications
Bus & Motor
STARLINK V2MO, Unknown motor
Mass
575 kg wet, ~530 kg dry
Launch date (UTC)
2025-05-13 (7 months ago)
Launch vehicle
FALCON 9
Launch site
Air Force Eastern Test Range (AFETR)
Object type
Payload
Rocket body
Debris
Shape & HBR
Box + 2 Pan, 17.7 m
Radar Cross Section
36.964 m², Large (>1 m²)

Expand to show TLE details & history
Last TLE update: 11 hours ago

TLE from 11 hours ago
0 STARLINK-34139
1 63975U 25099Z   25346.91393922  .00035354  00000-0  12881-2 0  9995
2 63975  43.0043 302.9344 0001662 262.9806  97.0856 15.27579902 34019
Epoch: 2025-12-12T21:56Z
TLE epoch observation values (Epoch: 2025-12-12T21:56:04.348Z)
Latitude
-0.00007°
Longitude
-107.93253°
Altitude
482.966 km
Speed
7.626 km/s
True Right ascension
20h 11m 44s
True Declination
0° 00' 00"
Sunlit
Object was in daylight at epoch
Visualization orbit readout
Latitude
Unknown
Longitude
Unknown
Altitude
Unknown
Speed
Unknown
Apparent Right ascension
Unknown
Apparent Declination
Unknown
Sunlit
N/A
Visualization observer readout
Local Sidereal Time
07:27:33
Azimuth
Unknown
Elevation
Unknown
Doppler factor
Unknown
Orbital elements
Apogee altitude
486.134 km
Perigee altitude
483.853 km
Semi-major axis
6,863.131 km
Eccentricity
0.00017
Inclination
43.0043°
RAAN
302.9344°
Arg. of periapsis
262.9806°
True anomaly
97.1045°
Mean anomaly
97.0856°
Eccentric anomaly
97.09505°
Mean motion
3.81733 °/min
Orbital period
94.31 mins
BSTAR
0.0012881
Loading maneuver chart data...
Computing Atmospheric mass density...
Loading historical data...
Loading historical data...
Loading historical data...
Loading historical data...
Loading historical data...
Loading historical data...
Loading historical data...

Documentation

Showing up to 5 results
|